Terminal Aerodrome Forecast
Issued by NWS Indianapolis, IN

Home | Current Version | Previous Version | Text Only | Print | Product List | Glossary On
Versions: 1 2 3 4 5 6 7 8 9 10 11 12 13 14 15 16 17 18 19 20 21 22 23 24 25 26
000
FTUS43 KIND 311720
TAFIND
TAF
KIND 311720Z 3118/0124 21007KT P6SM SCT030 BKN040
     FM010100 20003KT P6SM SCT250
      TEMPO 0109/0112 4SM BR
     FM011300 21005KT P6SM SCT050=

USA.gov is the U.S. government's official web portal to all federal, state and local government web resources and services.